GW3643 Weather Reports


Display with metric or nautical units.
time (UTC)temp
F
wind
direction
speed
MPH
gust
MPH
rain 1hr
in
rain 24hr
in
rain mn
in
humidity
%
barometer
mb
20260905132045 93 265 2.0 10.0 0.00 0.00 0.00 20 1022.7
20260905131629 94 319 3.0 9.0 0.00 0.00 0.00 20 1022.7
20260905131048 94 0 2.0 7.0 0.00 0.00 0.00 20 1022.8
20260905130546 94 329 1.0 7.0 0.00 0.00 0.00 20 1022.8
20260905130114 94 0 1.0 9.0 0.00 0.00 0.00 21 1022.8
20260905125543 94 275 2.0 9.0 0.00 0.00 0.00 21 1022.9
20260905125043 94 0 2.0 8.0 0.00 0.00 0.00 23 1022.8
20260905124558 94 224 2.0 8.0 0.00 0.00 0.00 23 1022.9
20260905124042 94 225 1.0 7.0 0.00 0.00 0.00 24 1022.9
20260905123543 93 256 0.0 3.0 0.00 0.00 0.00 26 1022.9
20260905123100 94 20 0.0 3.0 0.00 0.00 0.00 26 1023.0
20260905122546 94 341 0.0 4.0 0.00 0.00 0.00 26 1023.0
20260905122048 94 288 1.0 7.0 0.00 0.00 0.00 26 1023.0
20260905121600 94 204 1.0 7.0 0.00 0.00 0.00 26 1023.0
20260905121047 94 234 1.0 7.0 0.00 0.00 0.00 26 1023.0
20260905120547 93 220 1.0 5.0 0.00 0.00 0.00 26 1023.0
20260905120058 93 0 0.0 6.0 0.00 0.00 0.00 26 1023.0
20260905115543 92 230 1.0 6.0 0.00 0.00 0.00 26 1023.0
20260905115043 91 305 1.0 6.0 0.00 0.00 0.00 27 1023.1
20260905114603 90 200 1.0 4.0 0.00 0.00 0.00 28 1023.1
20260905114043 91 346 0.0 3.0 0.00 0.00 0.00 27 1023.0
20260905113548 91 0 0.0 3.0 0.00 0.00 0.00 27 1023.2
20260905113112 92 213 0.0 3.0 0.00 0.00 0.00 27 1023.2
20260905112548 91 327 1.0 3.0 0.00 0.00 0.00 27 1023.3
20260905112050 92 321 0.0 6.0 0.00 0.00 0.00 26 1023.2
20260905111603 91 319 2.0 6.0 0.00 0.00 0.00 27 1023.2
20260905111044 90 0 2.0 6.0 0.00 0.00 0.00 27 1023.2
20260905110542 89 0 2.0 6.0 0.00 0.00 0.00 28 1023.1
20260905110055 89 141 1.0 4.0 0.00 0.00 0.00 28 1023.1
20260905105544 88 200 1.0 4.0 0.00 0.00 0.00 28 1023.2
20260905105044 88 0 0.0 5.0 0.00 0.00 0.00 28 1023.3
20260905104604 88 182 1.0 7.0 0.00 0.00 0.00 28 1023.2
20260905104045 88 188 1.0 7.0 0.00 0.00 0.00 28 1023.3
20260905103546 89 177 2.0 7.0 0.00 0.00 0.00 27 1023.3
20260905103056 89 210 1.0 8.0 0.00 0.00 0.00 27 1023.3
20260905102544 89 205 3.0 8.0 0.00 0.00 0.00 27 1023.4
20260905102046 89 236 2.0 8.0 0.00 0.00 0.00 27 1023.4
20260905101633 88 224 3.0 8.0 0.00 0.00 0.00 28 1023.4
20260905101047 87 179 3.0 6.0 0.00 0.00 0.00 29 1023.4
20260905100543 88 170 2.0 6.0 0.00 0.00 0.00 28 1023.4
20260905100055 88 0 0.0 5.0 0.00 0.00 0.00 28 1023.4
20260905095542 88 0 1.0 6.0 0.00 0.00 0.00 28 1023.5
20260905095042 88 203 2.0 6.0 0.00 0.00 0.00 29 1023.5
20260905094555 88 116 2.0 5.0 0.00 0.00 0.00 28 1023.5
20260905094043 87 167 1.0 6.0 0.00 0.00 0.00 29 1023.4
20260905093544 87 126 2.0 8.0 0.00 0.00 0.00 30 1023.4
20260905093058 85 0 1.0 8.0 0.00 0.00 0.00 31 1023.5
20260905092544 85 157 2.0 7.0 0.00 0.00 0.00 31 1023.3
20260905092044 85 45 1.0 5.0 0.00 0.00 0.00 31 1023.4
20260905091609 85 145 1.0 5.0 0.00 0.00 0.00 31 1023.4
20260905091046 86 43 1.0 4.0 0.00 0.00 0.00 30 1023.2
20260905090542 85 0 1.0 4.0 0.00 0.00 0.00 30 1023.3
20260905090055 84 0 1.0 5.0 0.00 0.00 0.00 31 1023.3
20260905085543 84 197 1.0 6.0 0.00 0.00 0.00 31 1023.2
20260905085043 85 8 2.0 8.0 0.00 0.00 0.00 30 1023.2
20260905084607 85 341 2.0 8.0 0.00 0.00 0.00 29 1023.2
20260905084042 84 8 1.0 7.0 0.00 0.00 0.00 29 1023.0
20260905083543 84 0 1.0 7.0 0.00 0.00 0.00 29 1023.0
20260905083059 84 109 2.0 6.0 0.00 0.00 0.00 29 1023.0
20260905082543 83 43 0.0 8.0 0.00 0.00 0.00 30 1023.0
20260905082043 82 34 4.0 8.0 0.00 0.00 0.00 30 1023.1
20260905081559 83 25 4.0 8.0 0.00 0.00 0.00 29 1023.3
20260905081042 83 8 3.0 6.0 0.00 0.00 0.00 29 1023.1
20260905080542 84 75 2.0 5.0 0.00 0.00 0.00 28 1023.1
20260905080109 83 0 0.0 3.0 0.00 0.00 0.00 30 1023.1
20260905075547 82 0 0.0 6.0 0.00 0.00 0.00 30 1023.2
20260905075043 81 319 2.0 7.0 0.00 0.00 0.00 31 1023.2
20260905074558 81 16 3.0 7.0 0.00 0.00 0.00 31 1023.3
20260905074043 82 26 2.0 5.0 0.00 0.00 0.00 31 1023.2
20260905073544 80 0 0.0 4.0 0.00 0.00 0.00 32 1023.1
20260905073058 80 69 1.0 4.0 0.00 0.00 0.00 32 1023.0
20260905072544 80 0 0.0 6.0 0.00 0.00 0.00 32 1022.9
20260905072044 80 59 0.0 6.0 0.00 0.00 0.00 32 1022.8
20260905071604 80 90 0.0 6.0 0.00 0.00 0.00 32 1022.7
20260905071045 80 126 2.0 6.0 0.00 0.00 0.00 32 1022.7
20260905070545 80 47 1.0 4.0 0.00 0.00 0.00 32 1022.6
20260905070108 80 66 0.0 4.0 0.00 0.00 0.00 32 1022.5
20260905065547 79 0 1.0 4.0 0.00 0.00 0.00 32 1022.5
20260905065044 79 0 0.0 4.0 0.00 0.00 0.00 32 1022.4
20260905064602 79 49 0.0 4.0 0.00 0.00 0.00 32 1022.4
20260905064049 79 37 1.0 3.0 0.00 0.00 0.00 32 1022.3
20260905063546 79 0 0.0 2.0 0.00 0.00 0.00 31 1022.3
20260905063058 80 19 0.0 1.0 0.00 0.00 0.00 31 1022.3
20260905062544 79 0 0.0 3.0 0.00 0.00 0.00 31 1022.2
20260905062044 79 0 0.0 3.0 0.00 0.00 0.00 31 1022.0
20260905061616 79 16 0.0 3.0 0.00 0.00 0.00 31 1022.1
20260905061046 79 0 0.0 3.0 0.00 0.00 0.00 31 1022.1
20260905060545 79 45 0.0 4.0 0.00 0.00 0.00 30 1022.1
20260905060105 79 71 1.0 4.0 0.00 0.00 0.00 30 1022.1
20260905055544 80 71 0.0 4.0 0.00 0.00 0.00 30 1022.1
20260905055046 80 355 0.0 4.0 0.00 0.00 0.00 30 1021.9
20260905054604 80 0 0.0 4.0 0.00 0.00 0.00 29 1021.9
20260905054046 80 0 0.0 4.0 0.00 0.00 0.00 29 1022.0
20260905053543 80 76 0.0 4.0 0.00 0.00 0.00 29 1022.0
20260905053110 80 87 1.0 5.0 0.00 0.00 0.00 29 1022.1
20260905052549 80 49 0.0 5.0 0.00 0.00 0.00 29 1022.0
20260905052049 80 0 1.0 5.0 0.00 0.00 0.00 29 1021.9
20260905051556 80 61 0.0 2.0 0.00 0.00 0.00 29 1021.9
20260905051046 80 76 0.0 1.0 0.00 0.00 0.00 29 1021.9
20260905050550 80 0 0.0 4.0 0.00 0.00 0.00 29 1021.8
20260905050058 80 0 0.0 4.0 0.00 0.00 0.00 29 1021.9
20260905045543 80 48 2.0 8.0 0.00 0.00 0.00 28 1021.9
20260905045046 80 351 2.0 8.0 0.00 0.00 0.00 29 1022.0
20260905044601 80 2 2.0 4.0 0.00 0.00 0.00 29 1021.8
20260905044046 80 6 2.0 4.0 0.00 0.00 0.00 29 1021.8
20260905043543 81 360 1.0 4.0 0.00 0.00 0.00 29 1021.8
20260905043059 81 16 1.0 4.0 0.00 0.00 0.00 28 1021.7
20260905042549 81 7 0.0 3.0 0.00 0.00 0.00 28 1021.8
20260905042045 81 351 0.0 6.0 0.00 0.00 0.00 28 1021.8
20260905041554 81 0 1.0 6.0 0.00 0.00 0.00 28 1021.7
20260905041045 81 62 1.0 6.0 0.00 0.00 0.00 28 1021.6
20260905040545 81 90 1.0 6.0 0.00 0.00 0.00 28 1021.5
20260905040056 81 95 0.0 4.0 0.00 0.00 0.00 28 1021.4
20260905035546 81 351 0.0 9.0 0.00 0.00 0.00 28 1021.5
20260905035046 81 30 1.0 9.0 0.00 0.00 0.00 28 1021.5
20260905034601 81 0 1.0 6.0 0.00 0.00 0.00 28 1021.4
20260905034046 81 326 0.0 6.0 0.00 0.00 0.00 28 1021.3
20260905033543 81 62 1.0 7.0 0.00 0.00 0.00 28 1021.4
20260905033100 81 55 2.0 7.0 0.00 0.00 0.00 27 1021.4
20260905032546 81 116 1.0 6.0 0.00 0.00 0.00 27 1021.5
20260905032046 82 0 2.0 8.0 0.00 0.00 0.00 27 1021.5
20260905031559 82 38 1.0 9.0 0.00 0.00 0.00 27 1021.6
20260905031047 82 53 1.0 9.0 0.00 0.00 0.00 27 1021.6
20260905030543 82 64 1.0 8.0 0.00 0.00 0.00 26 1021.6
20260905025546 82 3 0.0 8.0 0.00 0.00 0.00 26 1021.5
20260905025046 82 0 1.0 8.0 0.00 0.00 0.00 26 1021.6
20260905024632 82 154 1.0 8.0 0.00 0.00 0.00 26 1021.7
20260905024050 82 0 1.0 4.0 0.00 0.00 0.00 26 1021.6
20260905023548 82 21 1.0 7.0 0.00 0.00 0.00 26 1021.7
20260905023059 82 62 1.0 7.0 0.00 0.00 0.00 26 1021.7
20260905022545 83 62 0.0 4.0 0.00 0.00 0.00 26 1021.6
20260905022045 83 0 0.0 6.0 0.00 0.00 0.00 26 1021.7
20260905021556 83 0 0.0 6.0 0.00 0.00 0.00 26 1021.7
20260905021046 83 62 0.0 4.0 0.00 0.00 0.00 26 1021.6
20260905020547 83 48 0.0 3.0 0.00 0.00 0.00 25 1021.6
20260905020054 83 54 0.0 4.0 0.00 0.00 0.00 25 1021.7
20260905015546 83 116 0.0 4.0 0.00 0.00 0.00 25 1021.6
20260905015045 83 42 0.0 5.0 0.00 0.00 0.00 25 1021.7
20260905014558 83 43 0.0 5.0 0.00 0.00 0.00 24 1021.8
20260905014049 83 0 0.0 4.0 0.00 0.00 0.00 24 1021.8
20260905013546 83 0 1.0 4.0 0.00 0.00 0.00 24 1021.8
20260905013056 84 30 0.0 4.0 0.00 0.00 0.00 24 1021.7
20260905012546 84 63 0.0 4.0 0.00 0.00 0.00 24 1021.8
20260905012045 84 0 0.0 2.0 0.00 0.00 0.00 23 1021.7
20260905011600 84 0 0.0 3.0 0.00 0.00 0.00 23 1021.8
20260905011048 84 158 0.0 6.0 0.00 0.00 0.00 23 1021.9
20260905010546 84 82 0.0 7.0 0.00 0.00 0.00 23 1021.9
20260905010106 84 0 1.0 7.0 0.00 0.00 0.00 23 1022.0
20260905005546 84 346 1.0 6.0 0.00 0.00 0.00 22 1021.9
20260905005046 85 0 1.0 8.0 0.00 0.00 0.00 22 1021.9
20260905004603 85 80 2.0 8.0 0.00 0.00 0.00 22 1021.9
20260905004045 85 86 2.0 7.0 0.00 0.00 0.00 22 1021.9
20260905003546 85 28 1.0 6.0 0.00 0.00 0.00 22 1021.9
20260905003101 85 72 1.0 9.0 0.00 0.00 0.00 22 1021.9
20260905002544 85 62 2.0 9.0 0.00 0.00 0.00 22 1021.9
20260905002047 85 28 2.0 9.0 0.00 0.00 0.00 22 1021.9
20260905001606 85 71 2.0 9.0 0.00 0.00 0.00 22 1021.9
20260905001049 85 95 1.0 6.0 0.00 0.00 0.00 22 1021.9
20260905000546 85 128 2.0 7.0 0.00 0.00 0.00 21 1021.9
20260905000059 85 66 2.0 7.0 0.00 0.00 0.00 21 1021.9
20260904235542 85 145 2.0 7.0 0.00 0.00 0.00 21 1021.9
20260904235045 85 151 1.0 7.0 0.00 0.00 0.00 21 1021.9
20260904234604 86 24 2.0 8.0 0.00 0.00 0.00 21 1021.9
20260904234045 86 62 2.0 8.0 0.00 0.00 0.00 21 1021.9
20260904233545 86 119 3.0 8.0 0.00 0.00 0.00 21 1021.9
20260904233102 86 128 3.0 8.0 0.00 0.00 0.00 20 1021.9
20260904232546 87 95 2.0 8.0 0.00 0.00 0.00 20 1021.9
20260904232043 87 65 2.0 7.0 0.00 0.00 0.00 20 1021.9
20260904231604 87 91 2.0 7.0 0.00 0.00 0.00 20 1021.9
20260904231050 87 127 2.0 7.0 0.00 0.00 0.00 19 1021.9
20260904230546 87 74 2.0 10.0 0.00 0.00 0.00 19 1021.8
20260904230059 87 41 2.0 10.0 0.00 0.00 0.00 19 1021.8
20260904225543 87 86 2.0 10.0 0.00 0.00 0.00 19 1021.9
20260904225046 87 2 2.0 10.0 0.00 0.00 0.00 19 1021.9
20260904224558 88 43 3.0 10.0 0.00 0.00 0.00 19 1021.9
20260904224044 88 114 2.0 8.0 0.00 0.00 0.00 19 1021.8
20260904223544 88 48 2.0 8.0 0.00 0.00 0.00 19 1021.8
20260904223109 88 103 2.0 7.0 0.00 0.00 0.00 19 1021.8
20260904222545 88 109 2.0 8.0 0.00 0.00 0.00 19 1021.9
20260904222043 88 70 3.0 8.0 0.00 0.00 0.00 19 1021.8
20260904221610 88 95 1.0 6.0 0.00 0.00 0.00 19 1021.9
20260904221043 88 109 0.0 5.0 0.00 0.00 0.00 19 1021.8
20260904220546 88 0 1.0 4.0 0.00 0.00 0.00 18 1021.9
20260904220104 89 114 1.0 4.0 0.00 0.00 0.00 18 1021.9
20260904215545 90 0 1.0 5.0 0.00 0.00 0.00 17 1021.9
20260904215045 90 126 1.0 5.0 0.00 0.00 0.00 17 1021.9
20260904214607 90 59 1.0 7.0 0.00 0.00 0.00 17 1021.9
20260904214043 90 164 1.0 7.0 0.00 0.00 0.00 17 1021.9
20260904213544 90 5 2.0 7.0 0.00 0.00 0.00 17 1021.7
20260904213104 90 10 0.0 3.0 0.00 0.00 0.00 17 1021.7
20260904212543 90 0 0.0 5.0 0.00 0.00 0.00 17 1021.9
20260904212046 90 19 1.0 6.0 0.00 0.00 0.00 17 1021.9
20260904211612 90 22 1.0 6.0 0.00 0.00 0.00 17 1021.9
20260904211046 90 355 1.0 3.0 0.00 0.00 0.00 18 1021.9
20260904210544 89 14 0.0 2.0 0.00 0.00 0.00 18 1021.9
20260904210106 89 0 0.0 1.0 0.00 0.00 0.00 19 1021.9
20260904205546 89 0 0.0 2.0 0.00 0.00 0.00 20 1021.9
20260904205043 89 0 0.0 4.0 0.00 0.00 0.00 20 1021.9
20260904204605 89 346 1.0 4.0 0.00 0.00 0.00 20 1021.9
20260904204045 89 341 0.0 0.0 0.00 0.00 0.00 21 1021.8
20260904203543 89 0 0.0 0.0 0.00 0.00 0.00 21 1021.8
20260904203101 89 0 0.0 0.0 0.00 0.00 0.00 21 1021.8
20260904202542 89 0 0.0 2.0 0.00 0.00 0.00 21 1021.7
20260904202042 88 0 0.0 4.0 0.00 0.00 0.00 21 1021.8
20260904201602 89 338 0.0 4.0 0.00 0.00 0.00 21 1021.7
20260904201045 90 334 1.0 4.0 0.00 0.00 0.00 19 1021.7
20260904200542 91 0 0.0 1.0 0.00 0.00 0.00 19 1021.6
20260904200106 91 0 0.0 0.0 0.00 0.00 0.00 18 1021.6
20260904195543 91 0 0.0 0.0 0.00 0.00 0.00 18 1021.6
20260904195045 91 0 0.0 0.0 0.00 0.00 0.00 18 1021.4
20260904194605 92 0 0.0 0.0 0.00 0.00 0.00 19 1021.4
20260904194043 92 0 0.0 0.0 0.00 0.00 0.00 18 1021.3
20260904193546 92 0 0.0 0.0 0.00 0.00 0.00 18 1021.3
20260904193056 92 0 0.0 0.0 0.00 0.00 0.00 19 1021.3
20260904192545 93 0 0.0 0.0 0.00 0.00 0.00 17 1021.2
20260904192046 93 0 0.0 0.0 0.00 0.00 0.00 17 1021.3
20260904191602 93 0 0.0 0.0 0.00 0.00 0.00 16 1021.3
20260904191045 94 0 0.0 1.0 0.00 0.00 0.00 16 1021.2
20260904190543 94 0 0.0 1.0 0.00 0.00 0.00 16 1021.1
20260904190058 94 232 0.0 1.0 0.00 0.00 0.00 14 1021.2
20260904185543 94 0 0.0 1.0 0.00 0.00 0.00 15 1021.1
20260904185044 94 0 0.0 1.0 0.00 0.00 0.00 15 1021.0
20260904184606 95 232 0.0 1.0 0.00 0.00 0.00 15 1021.0
20260904184046 95 0 0.0 1.0 0.00 0.00 0.00 15 1021.1
20260904183546 95 0 0.0 1.0 0.00 0.00 0.00 15 1021.1
20260904183058 95 0 0.0 1.0 0.00 0.00 0.00 14 1021.1
20260904182546 96 0 0.0 1.0 0.00 0.00 0.00 14 1021.1
20260904182043 96 0 0.0 2.0 0.00 0.00 0.00 14 1021.1
20260904181557 96 0 0.0 2.0 0.00 0.00 0.00 14 1021.1
20260904181046 96 0 0.0 2.0 0.00 0.00 0.00 14 1021.1
20260904180546 96 0 0.0 3.0 0.00 0.00 0.00 13 1021.1
20260904180109 96 0 0.0 3.0 0.00 0.00 0.00 13 1021.1
20260904175544 96 228 0.0 1.0 0.00 0.00 0.00 14 1021.1
20260904175043 97 0 0.0 2.0 0.00 0.00 0.00 13 1021.1
20260904174559 97 0 0.0 5.0 0.00 0.00 0.00 13 1021.1
20260904174044 97 0 0.0 5.0 0.00 0.00 0.00 13 1021.1
20260904173542 97 222 1.0 5.0 0.00 0.00 0.00 13 1021.1
20260904173056 97 224 2.0 3.0 0.00 0.00 0.00 13 1021.1
20260904172544 98 167 1.0 4.0 0.00 0.00 0.00 13 1021.2
20260904172043 97 245 1.0 4.0 0.00 0.00 0.00 13 1021.2
20260904171601 98 193 0.0 4.0 0.00 0.00 0.00 13 1021.3
20260904171043 98 0 1.0 8.0 0.00 0.00 0.00 13 1021.2
20260904170543 98 211 0.0 8.0 0.00 0.00 0.00 13 1021.1
20260904170059 98 290 2.0 8.0 0.00 0.00 0.00 12 1021.2
20260904165547 98 201 1.0 6.0 0.00 0.00 0.00 12 1021.1
20260904165046 98 0 2.0 6.0 0.00 0.00 0.00 12 1021.1
20260904164558 98 236 1.0 5.0 0.00 0.00 0.00 12 1021.1
20260904164048 97 218 2.0 7.0 0.00 0.00 0.00 12 1021.1
20260904163542 97 182 3.0 7.0 0.00 0.00 0.00 12 1021.0
20260904163109 97 261 2.0 5.0 0.00 0.00 0.00 12 1021.1
20260904162543 97 192 2.0 9.0 0.00 0.00 0.00 12 1021.1
20260904162042 98 204 2.0 9.0 0.00 0.00 0.00 12 1021.3
20260904161557 98 207 2.0 7.0 0.00 0.00 0.00 12 1021.3
20260904161043 98 217 3.0 8.0 0.00 0.00 0.00 11 1021.4
20260904160543 98 263 3.0 10.0 0.00 0.00 0.00 12 1021.4
20260904160057 98 220 4.0 10.0 0.00 0.00 0.00 12 1021.3
20260904155542 98 203 3.0 7.0 0.00 0.00 0.00 12 1021.3
20260904155045 98 235 1.0 6.0 0.00 0.00 0.00 12 1021.4
20260904154555 98 213 2.0 8.0 0.00 0.00 0.00 12 1021.4
20260904154045 97 205 3.0 10.0 0.00 0.00 0.00 12 1021.3
20260904153543 97 155 4.0 10.0 0.00 0.00 0.00 12 1021.3
20260904153107 98 171 3.0 9.0 0.00 0.00 0.00 11 1021.4
20260904152545 98 143 3.0 9.0 0.00 0.00 0.00 11 1021.5
20260904152046 98 188 2.0 10.0 0.00 0.00 0.00 12 1021.4
20260904151558 97 161 4.0 10.0 0.00 0.00 0.00 12 1021.4
20260904151044 97 143 3.0 9.0 0.00 0.00 0.00 12 1021.5
20260904150543 97 139 3.0 9.0 0.00 0.00 0.00 12 1021.6
20260904150056 97 189 5.0 8.0 0.00 0.00 0.00 12 1021.6
20260904145543 98 185 2.0 8.0 0.00 0.00 0.00 12 1021.5
20260904145043 98 223 4.0 7.0 0.00 0.00 0.00 12 1021.5
20260904144557 98 234 1.0 6.0 0.00 0.00 0.00 12 1021.5
20260904144044 99 234 2.0 6.0 0.00 0.00 0.00 11 1021.6
20260904143543 98 0 2.0 7.0 0.00 0.00 0.00 11 1021.7
20260904143102 97 213 2.0 7.0 0.00 0.00 0.00 12 1021.8
20260904142546 98 184 2.0 7.0 0.00 0.00 0.00 11 1021.8
20260904142044 98 176 4.0 10.0 0.00 0.00 0.00 12 1021.8
20260904141617 98 0 3.0 10.0 0.00 0.00 0.00 12 1021.9
20260904141043 97 218 4.0 10.0 0.00 0.00 0.00 12 1021.9
20260904140542 97 189 4.0 9.0 0.00 0.00 0.00 12 1021.9
20260904140056 97 157 1.0 7.0 0.00 0.00 0.00 13 1022.0
20260904135542 97 187 3.0 7.0 0.00 0.00 0.00 13 1022.0
20260904135043 97 184 3.0 8.0 0.00 0.00 0.00 13 1022.1
20260904134558 97 198 3.0 8.0 0.00 0.00 0.00 13 1022.2
20260904134044 98 201 3.0 8.0 0.00 0.00 0.00 12 1022.2
20260904133544 97 168 1.0 9.0 0.00 0.00 0.00 12 1022.3
20260904133100 98 166 3.0 9.0 0.00 0.00 0.00 13 1022.3
20260904132544 98 200 1.0 7.0 0.00 0.00 0.00 13 1022.3